Regional Weather Roundup
Issued by NWS

Home | Current Version | Previous Version | Text Only | Print | Product List | Glossary On
Versions: 1 2 3 4 5 6 7 8 9 10 11 12 13 14 15 16 17 18 19 20 21 22 23 24 25 26 27 28 29 30 31 32 33 34 35 36 37 38 39 40 41 42 43 44 45 46 47 48 49 50
000
ASUS43 KDMX 242006
RWRIA

WEATHER ROUNDUP FOR IOWA
NATIONAL WEATHER SERVICE DES MOINES IA
200 PM CST TUE JAN 24 2017

NOTE: "FAIR" INDICATES FEW OR NO CLOUDS BELOW 12,000 FEET WITH NO
SIGNIFICANT WEATHER AND/OR OBSTRUCTIONS TO VISIBILITY.

* - THESE STATIONS ARE NOT NWS STATIONS...THUS NOT UNDER NWS
QUALITY CONTROL.  THEY ALSO DO NOT REPORT WEATHER SUCH
AS PRECIPITATION OR FOG.

IAZ001>003-012>014-020>022-031>034-043>046-242100-
   NORTHWEST IOWA

CITY           SKY/WX    TMP DP  RH WIND       PRES   REMARKS
CARROLL *      CLOUDY    32  32 100 E18G25    29.64F WCI  20
CHEROKEE *     SNOW      31  31 100 NE12G17   29.67F VSB 1/2 WCI  21
DENISON *      CLOUDY    32  30  93 E21G30    29.57F WCI  20
LE MARS *      MIX PCPN  32  30  93 NE17G24   29.65F WCI  21
ORANGE CITY *  HVY SNOW  30  30 100 E13       29.66F VSB<1/4 WCI  20
SHELDON *      LGT SNOW  30  30 100 E17       29.67F WCI  18
SIOUX CITY     CLOUDY    34  30  85 E17G28    29.61F WCI  23
SPENCER        LGT SNOW  30  29  96 E13       29.72F FOG     WCI  20
STORM LAKE *   SNOW      30  28  93 E26       29.66F VSB 1/2 WCI  16
$$

IAZ055>058-069>071-079>083-090>094-242100-
   SOUTHWEST IOWA

CITY           SKY/WX    TMP DP  RH WIND       PRES   REMARKS
ATLANTIC *     CLOUDY    32  30  93 E17G30    29.56F WCI  21
AUDUBON *      CLOUDY    30  28  93 E20G25    29.61F FOG     WCI  18
CLARINDA *     PTSUNNY   36  32  87 SE7G18    29.57S WCI  30
COUNCIL BLFS * CLOUDY    34  32  93 NE12G29   29.54R WCI  25
CRESTON *      CLOUDY    32  32 100 E24G31    29.58F WCI  19
HARLAN  *      CLOUDY    32  32 100 E21G35    29.59F WCI  20
LAMONI         CLOUDY    36  30  79 E15G25    29.55F WCI  27
RED OAK *      CLOUDY    34  30  86 E21       29.54F WCI  22
SHENANDOAH *   CLOUDY    37  32  81 E18G25    29.51F WCI  27
$$

IAZ047>049-059>061-072>074-084-242100-
   CENTRAL IOWA

CITY           SKY/WX    TMP DP  RH WIND       PRES   REMARKS
AMES           CLOUDY    32  31  96 E10       29.71F WCI  24
ANKENY *       CLOUDY    32  30  93 E16G23    29.70F WCI  21
BOONE *        CLOUDY    32  32 100 E20       29.68F FOG     WCI  20
CHARITON *     CLOUDY    32  30  93 E18G25    29.64F WCI  20
DES MOINES     CLOUDY    32  29  88 E15G23    29.67F WCI  22
GRINNELL*      CLOUDY    31  30  96 E14       29.74F FOG     WCI  21
KNOXVILLE *    CLOUDY    32  30  93 E14G21    29.67F FOG     WCI  22
MARSHALLTOWN   CLOUDY    31  30  96 E13       29.73F FOG     WCI  21
NEWTON *       CLOUDY    30  30 100 E18       29.70F FOG     WCI  18
PELLA *        CLOUDY    32  30  94 MISG      29.71F FOG
PERRY *        CLOUDY    32  31  96 E20G25    29.66F FOG     WCI  20
$$

IAZ004>006-015-016-023>025-035-036-242100-
   NORTH CENTRAL IOWA

CITY           SKY/WX    TMP DP  RH WIND       PRES   REMARKS
ALGONA *       CLOUDY    30  30 100 E12       29.74F FOG     WCI  21
CLARION *      CLOUDY    32  32 100 E10       29.74F WCI  24
ESTHERVILLE    CLOUDY    29  29 100 E12       29.75F FOG     WCI  19
FORT DODGE *   CLOUDY    30  27  86 E14       29.71F WCI  20
MASON CITY     CLOUDY    31  27  85 E7        29.78F WCI  24
FOREST CITY *  CLOUDY    32  30  93 SE10      29.77F WCI  24
WEBSTER CITY * LGT SNOW  32 N/A N/A E15       29.70F VSB 3/4 WCI  22
IOWA FALLS *   LGT SNOW  32  30  92 E13       29.74F WCI  22
$$

IAZ007>011-017>019-026>030-037>042-050>054-066-242100-
   NORTHEAST IOWA

CITY           SKY/WX    TMP DP  RH WIND       PRES   REMARKS
CEDAR RAPIDS   LGT SNOW  32  29  88 SE9       29.77F FOG     WCI  24
CHARLES CITY * CLOUDY    32  32 100 SE9       29.79F WCI  24
CLINTON *      CLOUDY    36  32  85 SE8       29.83S WCI  30
DECORAH *      CLOUDY    34  30  86 E8        29.78S WCI  27
DUBUQUE        CLOUDY    33  30  88 SE8       29.80F WCI  26
MONTICELLO *   CLOUDY    34  30  86 SE7       29.82S WCI  28
OELWEIN *      CLOUDY    32  32 100 SE12      29.79F WCI  23
WATERLOO       CLOUDY    32  29  88 SE9       29.79F WCI  24
$$

IAZ064-065-067-068-078-242100-
   EAST CENTRAL IOWA

CITY           SKY/WX    TMP DP  RH WIND       PRES   REMARKS
DAVENPORT      CLOUDY    36  31  82 E7        29.81F WCI  30
IOWA CITY      CLOUDY    35  31  85 E6        29.81F WCI  30
MUSCATINE *    CLOUDY    37  32  81 E6        29.81F WCI  33
QUAD CITIES    FLURRIES  37  31  78 SE8       29.81F WCI  31
$$

IAZ062-063-075>077-085>089-095>099-242100-
   SOUTHEAST IOWA

CITY           SKY/WX    TMP DP  RH WIND       PRES   REMARKS
BURLINGTON     CLOUDY    38  33  82 E9        29.77F WCI  31
FAIRFIELD *    CLOUDY    34  30  86 E13G20    29.73F FOG     WCI  25
FORT MADISON * CLOUDY    39  37  93 E13       29.77F WCI  32
KEOKUK *       CLOUDY    39 N/A N/A E13       29.75F WCI  32
OSKALOOSA *    CLOUDY    32  30  93 E16       29.72F FOG     WCI  21
CENTERVILLE *  CLOUDY    34  34 100 E15G22    29.67F WCI  24
OTTUMWA        CLOUDY    33  29  85 E16       29.72F FOG     WCI  23
WASHINGTON *   CLOUDY    34  32  93 E10       29.78F WCI  26
$$

ABBREVIATIONS USED IN REMARKS
   TC - TEMPERATURES IN CELSIUS
  WCI - WIND CHILL INDEX
   HX - HEAT INDEX
  VSB - VISIBILITY
$$





USA.gov is the U.S. government's official web portal to all federal, state and local government web resources and services.